EW8132 Weather Reports


Display with metric or nautical units.
time (UTC)temp
F
wind
direction
speed
MPH
gust
MPH
rain 1hr
in
rain 24hr
in
rain mn
in
humidity
%
barometer
mb
20220818174947 96 98 2.0 6.0 0.00 0.00 0.00 50 1013.5
20220818174343 97 156 3.0 6.0 0.00 0.00 0.00 50 1013.5
20220818174305 97 117 2.0 6.0 0.00 0.00 0.00 49 1013.5
20220818174121 97 130 1.0 5.0 0.00 0.00 0.00 50 1013.6
20220818173737 96 240 1.0 6.0 0.00 0.00 0.00 52 1013.6
20220818173434 96 72 2.0 6.0 0.00 0.00 0.00 51 1013.6
20220818173136 96 288 1.0 6.0 0.00 0.00 0.00 53 1013.5
20220818173013 96 213 3.0 6.0 0.00 0.00 0.00 53 1013.5
20220818171853 96 106 3.0 5.0 0.00 0.00 0.00 54 1013.5
20220818171352 96 181 2.0 4.0 0.00 0.00 0.00 52 1013.6
20220818171129 96 187 2.0 4.0 0.00 0.00 0.00 55 1013.6
20220818170544 96 147 1.0 6.0 0.00 0.00 0.00 55 1013.7
20220818170125 95 95 1.0 6.0 0.00 0.00 0.00 56 1013.7
20220818170101 95 92 2.0 6.0 0.00 0.00 0.00 56 1013.8
20220818165318 95 90 2.0 5.0 0.00 0.00 0.00 58 1013.8
20220818165014 95 85 2.0 5.0 0.00 0.00 0.00 57 1013.9
20220818164430 95 134 2.0 4.0 0.00 0.00 0.00 59 1013.9
20220818164352 95 115 2.0 4.0 0.00 0.00 0.00 60 1013.9
20220818164130 95 292 1.0 5.0 0.00 0.00 0.00 59 1013.9
20220818163926 94 0.0 5.0 0.00 0.00 0.00 61
20220818163627 93 294 1.0 5.0 0.00 0.00 0.00 61 1014.0
20220818163404 93 239 1.0 5.0 0.00 0.00 0.00 61 1014.0
20220818162000 94 59 2.0 3.0 0.00 0.00 0.00 61 1014.0
20220818161818 94 119 1.0 3.0 0.00 0.00 0.00 61 1014.0
20220818161420 94 194 1.0 3.0 0.00 0.00 0.00 62 1014.1
20220818160640 94 160 1.0 4.0 0.00 0.00 0.00 62 1014.2
20220818160536 94 113 1.0 4.0 0.00 0.00 0.00 62 1014.2
20220818160454 94 82 0.0 4.0 0.00 0.00 0.00 63 1014.2
20220818160141 94 98 1.0 4.0 0.00 0.00 0.00 61 1014.3
20220818155530 94 271 1.0 4.0 0.00 0.00 0.00 63 1014.4
20220818155252 94 296 1.0 4.0 0.00 0.00 0.00 64 1014.2
20220818154728 94 101 1.0 3.0 0.00 0.00 0.00 65 1014.3
20220818154224 93 103 1.0 3.0 0.00 0.00 0.00 65 1014.3
20220818154143 93 97 1.0 3.0 0.00 0.00 0.00 65 1014.4
20220818153838 92 115 1.0 2.0 0.00 0.00 0.00 66 1014.4
20220818153439 92 92 1.0 3.0 0.00 0.00 0.00 64 1014.5
20220818153356 92 93 1.0 3.0 0.00 0.00 0.00 64 1014.4
20220818151855 91 154 1.0 3.0 0.00 0.00 0.00 68 1014.5
20220818151531 92 243 2.0 4.0 0.00 0.00 0.00 67 1014.5
20220818151449 92 245 2.0 4.0 0.00 0.00 0.00 67 1014.6
20220818151028 92 262 1.0 4.0 0.00 0.00 0.00 66 1014.4
20220818150605 91 90 1.0 5.0 0.00 0.00 0.00 67 1014.4
20220818150401 91 110 1.0 5.0 0.00 0.00 0.00 69 1014.4
20220818145742 90 275 2.0 4.0 0.00 0.00 0.00 68 1014.6
20220818145343 90 140 0.0 4.0 0.00 0.00 0.00 72 1014.5
20220818145238 90 148 0.0 4.0 0.00 0.00 0.00 71 1014.5
20220818145157 90 158 0.0 4.0 0.00 0.00 0.00 70 1014.5
20220818144855 89 101 1.0 6.0 0.00 0.00 0.00 70 1014.5
20220818144635 89 120 1.0 6.0 0.00 0.00 0.00 71 1014.4
20220818144452 89 146 0.0 6.0 0.00 0.00 0.00 72 1014.4
20220818143149 88 105 2.0 4.0 0.00 0.00 0.00 73 1014.5
20220818142946 88 115 2.0 4.0 0.00 0.00 0.00 74 1014.5
20220818142748 88 134 1.0 3.0 0.00 0.00 0.00 73 1014.5
20220818141944 89 105 0.0 5.0 0.00 0.00 0.00 73 1014.4
20220818141225 89 98 0.0 3.0 0.00 0.00 0.00 75 1014.3
20220818141143 89 98 1.0 3.0 0.00 0.00 0.00 75 1014.4
20220818140943 88 107 2.0 4.0 0.00 0.00 0.00 75 1014.4
20220818140840 88 89 1.0 4.0 0.00 0.00 0.00 76 1014.4
20220818140357 89 108 2.0 4.0 0.00 0.00 0.00 74 1014.3
20220818134933 88 124 0.0 4.0 0.00 0.00 0.00 78 1014.3
20220818134851 88 124 0.0 4.0 0.00 0.00 0.00 78 1014.3
20220818134713 88 127 1.0 4.0 0.00 0.00 0.00 78 1014.4
20220818134350 88 186 1.0 4.0 0.00 0.00 0.00 78 1014.4
20220818132747 87 113 0.0 3.0 0.00 0.00 0.00 82 1014.4
20220818131726 85 280 0.0 2.0 0.00 0.00 0.00 86 1014.3
20220818131342 85 127 0.0 2.0 0.00 0.00 0.00 87 1014.4
20220818130724 84 115 0.0 2.0 0.00 0.00 0.00 88 1014.4
20220818125645 83 98 1.0 3.0 0.00 0.00 0.00 89 1014.3
20220818125341 83 101 1.0 2.0 0.00 0.00 0.00 89 1014.3
20220818125139 83 101 1.0 2.0 0.00 0.00 0.00 89 1014.3
20220818125041 83 104 1.0 2.0 0.00 0.00 0.00 89 1014.3
20220818124918 83 122 1.0 3.0 0.00 0.00 0.00 90 1014.4
20220818124434 82 103 0.0 3.0 0.00 0.00 0.00 91 1014.3
20220818124336 82 103 1.0 3.0 0.00 0.00 0.00 91 1014.3
20220818124033 82 102 1.0 3.0 0.00 0.00 0.00 91 1014.3
20220818123832 81 102 1.0 3.0 0.00 0.00 0.00 92 1014.2
20220818123710 81 105 0.0 2.0 0.00 0.00 0.00 92 1014.3
20220818122428 80 105 1.0 2.0 0.00 0.00 0.00 93 1014.1
20220818122026 80 105 1.0 3.0 0.00 0.00 0.00 94 1014.1
20220818121544 79 105 1.0 3.0 0.00 0.00 0.00 94 1014.1
20220818121339 79 104 1.0 3.0 0.00 0.00 0.00 94 1014.1
20220818121236 79 94 1.0 1.0 0.00 0.00 0.00 95 1014.1
20220818121158 79 108 1.0 1.0 0.00 0.00 0.00 95 1014.1
20220818115352 78 119 0.0 1.0 0.00 0.00 0.00 95 1014.0
20220818115130 78 119 0.0 1.0 0.00 0.00 0.00 95 1014.0
20220818115027 78 119 0.0 1.0 0.00 0.00 0.00 95 1014.0
20220818114928 78 119 0.0 1.0 0.00 0.00 0.00 95 1014.0
20220818114825 78 119 0.0 1.0 0.00 0.00 0.00 95 1013.9
20220818114543 78 119 0.0 1.0 0.00 0.00 0.00 95 1013.9
20220818114224 78 119 0.0 1.0 0.00 0.00 0.00 94 1013.9
20220818114121 78 119 0.0 1.0 0.00 0.00 0.00 94 1013.9
20220818113139 78 119 0.0 1.0 0.00 0.00 0.00 94 1013.9
20220818112915 78 105 0.0 1.0 0.00 0.00 0.00 94 1013.9
20220818112054 78 115 0.0 2.0 0.00 0.00 0.00 93 1013.9
20220818111830 78 115 0.0 2.0 0.00 0.00 0.00 93 1013.8
20220818111728 78 115 1.0 2.0 0.00 0.00 0.00 93 1013.8
20220818111046 78 113 1.0 2.0 0.00 0.00 0.00 95 1013.7
20220818110447 77 115 1.0 2.0 0.00 0.00 0.00 96 1013.7
20220818110204 76 107 0.0 1.0 0.00 0.00 0.00 96 1013.6
20220818105343 76 107 0.0 0.0 0.00 0.00 0.00 96 1013.6
20220818105040 76 106 0.0 0.0 0.00 0.00 0.00 95 1013.6
20220818104036 76 107 0.0 0.0 0.00 0.00 0.00 95 1013.6
20220818103836 76 106 0.0 0.0 0.00 0.00 0.00 95 1013.6
20220818103132 77 107 0.0 1.0 0.00 0.00 0.00 95 1013.5
20220818103108 77 107 0.0 1.0 0.00 0.00 0.00 95 1013.5
20220818102649 77 107 0.0 1.0 0.00 0.00 0.00 95 1013.4
20220818102407 77 107 0.0 1.0 0.00 0.00 0.00 95 1013.4
20220818102027 77 106 0.0 0.0 0.00 0.00 0.00 95 1013.3
20220818101845 77 106 0.0 0.0 0.00 0.00 0.00 95 1013.3
20220818101642 76 106 0.0 0.0 0.00 0.00 0.00 95 1013.2
20220818101442 77 106 0.0 0.0 0.00 0.00 0.00 95 1013.2
20220818101340 77 106 0.0 0.0 0.00 0.00 0.00 95 1013.2
20220818100539 77 106 0.0 0.0 0.00 0.00 0.00 95 1013.2
20220818100457 77 106 0.0 0.0 0.00 0.00 0.00 95 1013.2
20220818100154 77 106 0.0 1.0 0.00 0.00 0.00 94 1013.2
20220818095332 77 106 0.0 1.0 0.00 0.00 0.00 94 1013.1
20220818095250 77 106 0.0 1.0 0.00 0.00 0.00 94 1013.1
20220818095031 77 106 0.0 1.0 0.00 0.00 0.00 95 1013.1
20220818094929 77 106 0.0 1.0 0.00 0.00 0.00 95 1013.0
20220818094626 77 106 0.0 1.0 0.00 0.00 0.00 95 1013.0
20220818094247 77 105 0.0 1.0 0.00 0.00 0.00 95 1013.0
20220818092947 77 106 0.0 1.0 0.00 0.00 0.00 95 1012.8
20220818091307 77 104 0.0 1.0 0.00 0.00 0.00 95 1012.8
20220818090943 77 104 0.0 0.0 0.00 0.00 0.00 94 1012.8
20220818090705 77 104 0.0 0.0 0.00 0.00 0.00 94 1012.8
20220818085541 77 104 0.0 0.0 0.00 0.00 0.00 94 1012.9
20220818085339 77 104 0.0 0.0 0.00 0.00 0.00 94 1012.9
20220818085055 77 104 0.0 0.0 0.00 0.00 0.00 94 1012.9
20220818084836 77 104 0.0 0.0 0.00 0.00 0.00 94 1012.9
20220818084313 78 104 0.0 0.0 0.00 0.00 0.00 93 1012.9
20220818083934 78 104 0.0 0.0 0.00 0.00 0.00 93 1012.9
20220818083831 78 104 0.0 1.0 0.00 0.00 0.00 93 1012.9
20220818083749 78 104 0.0 1.0 0.00 0.00 0.00 93 1012.9
20220818083326 78 104 0.0 1.0 0.00 0.00 0.00 93 1012.9
20220818083227 78 104 0.0 1.0 0.00 0.00 0.00 93 1012.9
20220818082527 78 104 0.0 0.0 0.00 0.00 0.00 92 1012.9
20220818082424 78 104 0.0 0.0 0.00 0.00 0.00 92 1012.9
20220818082402 78 104 0.0 0.0 0.00 0.00 0.00 92 1012.9
20220818082140 78 104 0.0 0.0 0.00 0.00 0.00 92 1012.9
20220818081538 79 104 0.0 2.0 0.00 0.00 0.00 92 1012.7
20220818081436 79 104 0.0 2.0 0.00 0.00 0.00 92 1012.7
20220818081237 78 104 1.0 2.0 0.00 0.00 0.00 93 1012.7
20220818081135 78 107 1.0 2.0 0.00 0.00 0.00 93 1012.7
20220818075652 78 121 0.0 1.0 0.00 0.00 0.00 93 1012.8
20220818075450 78 121 0.0 1.0 0.00 0.00 0.00 93 1012.8
20220818075010 78 121 0.0 1.0 0.00 0.00 0.00 93 1012.9
20220818074627 78 121 0.0 1.0 0.00 0.00 0.00 93 1013.0
20220818073248 78 121 0.0 0.0 0.00 0.00 0.00 92 1013.1
20220818073024 79 121 0.0 0.0 0.00 0.00 0.00 92 1013.1
20220818073002 79 121 0.0 0.0 0.00 0.00 0.00 92 1013.1
20220818072700 79 0.0 1.0 0.00 0.00 0.00 91
20220818072421 79 121 0.0 1.0 0.00 0.00 0.00 91 1013.3
20220818071915 79 121 0.0 1.0 0.00 0.00 0.00 93 1013.3
20220818071254 78 121 0.0 1.0 0.00 0.00 0.00 93 1013.2
20220818070950 78 122 0.0 1.0 0.00 0.00 0.00 93 1013.3
20220818070748 78 122 0.0 0.0 0.00 0.00 0.00 93 1013.3
20220818070428 78 122 0.0 0.0 0.00 0.00 0.00 93 1013.3
20220818065728 78 122 0.0 1.0 0.00 0.00 0.00 92 1013.4
20220818065425 78 122 0.0 1.0 0.00 0.00 0.00 92 1013.4
20220818065243 78 122 0.0 0.0 0.00 0.00 0.00 92 1013.4
20220818064624 78 122 0.0 1.0 0.00 0.00 0.00 92 1013.4
20220818062642 79 121 0.0 0.0 0.00 0.00 0.00 92 1013.4
20220818062443 79 121 0.0 0.0 0.00 0.00 0.00 92 1013.5
20220818062401 79 121 0.0 0.0 0.00 0.00 0.00 92 1013.5
20220818061539 79 121 0.0 1.0 0.00 0.00 0.00 91 1013.4
20220818055832 79 121 0.0 1.0 0.00 0.00 0.00 90 1013.6
20220818055750 79 121 0.0 1.0 0.00 0.00 0.00 90 1013.5
20220818055352 79 120 0.0 1.0 0.00 0.00 0.00 91 1013.7
20220818055210 79 120 0.0 1.0 0.00 0.00 0.00 91 1013.7
20220818054826 79 120 0.0 1.0 0.00 0.00 0.00 91 1013.7
20220818054744 79 120 0.0 1.0 0.00 0.00 0.00 91 1013.8
20220818054601 79 120 0.0 1.0 0.00 0.00 0.00 91 1013.8
20220818054303 79 120 0.0 1.0 0.00 0.00 0.00 92 1013.9
20220818054059 79 120 0.0 1.0 0.00 0.00 0.00 92 1013.9
20220818053856 79 120 0.0 1.0 0.00 0.00 0.00 92 1013.9
20220818053655 79 120 0.0 1.0 0.00 0.00 0.00 92 1013.9
20220818053457 79 120 0.0 0.0 0.00 0.00 0.00 92 1014.0
20220818053255 79 120 0.0 0.0 0.00 0.00 0.00 92 1014.0
20220818052932 79 120 0.0 1.0 0.00 0.00 0.00 92 1014.0
20220818052752 79 120 0.0 1.0 0.00 0.00 0.00 92 1014.0
20220818052609 79 120 0.0 1.0 0.00 0.00 0.00 92 1014.0
20220818051207 79 120 0.0 0.0 0.00 0.00 0.00 91 1014.2
20220818050746 79 120 0.0 0.0 0.00 0.00 0.00 90 1014.3
20220818050425 79 120 0.0 0.0 0.00 0.00 0.00 90 1014.3
20220818050403 79 120 0.0 0.0 0.00 0.00 0.00 90 1014.3
20220818045759 79 120 0.0 0.0 0.00 0.00 0.00 90 1014.3
20220818045441 79 120 0.0 1.0 0.00 0.00 0.00 90 1014.3
20220818045338 79 120 0.0 1.0 0.00 0.00 0.00 90 1014.4
20220818044637 80 120 0.0 1.0 0.00 0.00 0.00 89 1014.5
20220818044534 80 120 0.0 1.0 0.00 0.00 0.00 90 1014.5
20220818044431 80 120 0.0 1.0 0.00 0.00 0.00 89 1014.5
20220818044354 80 120 0.0 1.0 0.00 0.00 0.00 89 1014.5
20220818044030 80 120 0.0 1.0 0.00 0.00 0.00 89 1014.5
20220818043927 80 120 0.0 1.0 0.00 0.00 0.00 89 1014.5
20220818043905 80 120 0.0 1.0 0.00 0.00 0.00 89 1014.5
20220818043126 80 120 0.0 1.0 0.00 0.00 0.00 89 1014.6
20220818043003 80 120 0.0 1.0 0.00 0.00 0.00 89 1014.5
20220818042624 80 120 0.0 0.0 0.00 0.00 0.00 88 1014.5
20220818042541 80 120 0.0 0.0 0.00 0.00 0.00 88 1014.6
20220818041840 80 120 0.0 1.0 0.00 0.00 0.00 87 1014.6
20220818041757 80 120 0.0 1.0 0.00 0.00 0.00 87 1014.6
20220818040105 81 120 0.0 1.0 0.00 0.00 0.00 86 1014.6
20220818035755 81 120 0.0 1.0 0.00 0.00 0.00 87 1014.7
20220818035553 81 120 0.0 1.0 0.00 0.00 0.00 88 1014.7
20220818035149 80 119 0.0 1.0 0.00 0.00 0.00 88 1014.8
20220818034529 81 119 0.0 1.0 0.00 0.00 0.00 87 1014.8
20220818033547 81 119 0.0 0.0 0.00 0.00 0.00 86 1014.8
20220818033324 81 119 0.0 1.0 0.00 0.00 0.00 86 1014.8
20220818032122 81 118 0.0 1.0 0.00 0.00 0.00 86 1014.8
20220818031039 81 118 0.0 0.0 0.00 0.00 0.00 85 1014.7
20220818030956 81 118 0.0 0.0 0.00 0.00 0.00 85 1014.7
20220818030758 81 118 0.0 0.0 0.00 0.00 0.00 85 1014.6
20220818030234 82 118 0.0 0.0 0.00 0.00 0.00 85 1014.6
20220818025835 82 118 0.0 0.0 0.00 0.00 0.00 85 1014.6
20220818025632 82 118 0.0 0.0 0.00 0.00 0.00 84 1014.6
20220818025529 82 118 0.0 0.0 0.00 0.00 0.00 84 1014.6
20220818025429 82 118 0.0 0.0 0.00 0.00 0.00 84 1014.7
20220818025227 82 118 0.0 1.0 0.00 0.00 0.00 84 1014.7
20220818025125 82 118 0.0 1.0 0.00 0.00 0.00 84 1014.7
20220818024925 82 118 0.0 1.0 0.00 0.00 0.00 84 1014.7
20220818024442 83 118 0.0 1.0 0.00 0.00 0.00 83 1014.7
20220818024419 83 118 0.0 1.0 0.00 0.00 0.00 83 1014.7
20220818024041 83 118 0.0 1.0 0.00 0.00 0.00 82 1014.6
20220818023958 83 118 0.0 1.0 0.00 0.00 0.00 82 1014.7
20220818023552 83 118 0.0 1.0 0.00 0.00 0.00 82 1014.6
20220818023329 83 118 1.0 1.0 0.00 0.00 0.00 82 1014.6
20220818023130 83 116 1.0 1.0 0.00 0.00 0.00 82 1014.6
20220818022907 83 115 0.0 1.0 0.00 0.00 0.00 82 1014.6
20220818022543 83 115 0.0 1.0 0.00 0.00 0.00 82 1014.7
20220818022444 83 115 0.0 1.0 0.00 0.00 0.00 82 1014.7
20220818022142 83 115 0.0 0.0 0.00 0.00 0.00 82 1014.8
20220818021959 83 115 0.0 0.0 0.00 0.00 0.00 82 1014.7
20220818021540 83 115 0.0 1.0 0.00 0.00 0.00 81 1014.6
20220818021457 83 115 0.0 1.0 0.00 0.00 0.00 81 1014.6
20220818021235 83 115 0.0 1.0 0.00 0.00 0.00 81 1014.7
20220818020856 83 115 0.0 1.0 0.00 0.00 0.00 81 1014.7
20220818020051 84 126 0.0 0.0 0.00 0.00 0.00 81 1014.6
20220818015830 84 126 0.0 1.0 0.00 0.00 0.00 80 1014.6
20220818015248 84 139 0.0 1.0 0.00 0.00 0.00 80 1014.7
20220818014650 84 140 0.0 1.0 0.00 0.00 0.00 80 1014.6
20220818014046 84 272 0.0 2.0 0.00 0.00 0.00 80 1014.6
20220818012523 84 126 0.0 0.0 0.00 0.00 0.00 79 1014.7
20220818011601 84 126 0.0 1.0 0.00 0.00 0.00 79 1014.4
20220818010939 85 129 0.0 2.0 0.00 0.00 0.00 79 1014.3
20220818010836 85 129 0.0 2.0 0.00 0.00 0.00 79 1014.4
20220818010638 85 129 0.0 2.0 0.00 0.00 0.00 79 1014.4
20220818010416 85 129 0.0 1.0 0.00 0.00 0.00 79 1014.3
20220818010052 85 145 0.0 1.0 0.00 0.00 0.00 79 1014.2
20220818005833 85 146 0.0 1.0 0.00 0.00 0.00 79 1014.1
20220818004948 85 195 0.0 1.0 0.00 0.00 0.00 79 1014.1
20220818004548 85 195 0.0 1.0 0.00 0.00 0.00 79 1014.1
20220818004346 85 133 0.0 1.0 0.00 0.00 0.00 78 1014.1
20220818002756 86 137 0.0 1.0 0.00 0.00 0.00 76 1013.8
20220818002238 86 126 0.0 3.0 0.00 0.00 0.00 75 1013.7
20220818002156 86 126 0.0 3.0 0.00 0.00 0.00 75 1013.7
20220818000936 86 113 0.0 3.0 0.00 0.00 0.00 72 1013.5
20220818000837 86 93 1.0 3.0 0.00 0.00 0.00 72 1013.5
20220818000434 87 147 0.0 2.0 0.00 0.00 0.00 71 1013.4
20220818000352 87 146 0.0 3.0 0.00 0.00 0.00 71 1013.4
20220817235731 87 300 1.0 3.0 0.00 0.00 0.00 70 1013.2
20220817234108 88 101 0.0 2.0 0.00 0.00 0.00 69 1013.2
20220817233744 88 159 0.0 3.0 0.00 0.00 0.00 69 1013.1
20220817233540 88 155 1.0 3.0 0.00 0.00 0.00 69 1013.1
20220817233442 88 117 1.0 3.0 0.00 0.00 0.00 69 1013.0
20220817233159 88 219 1.0 3.0 0.00 0.00 0.00 69 1013.0
20220817232937 88 126 1.0 3.0 0.00 0.00 0.00 69 1012.9
20220817232834 88 331 0.0 2.0 0.00 0.00 0.00 69 1013.0
20220817232034 89 90 0.0 3.0 0.00 0.00 0.00 70 1013.0
20220817231932 89 90 1.0 3.0 0.00 0.00 0.00 70 1013.0
20220817230132 90 119 0.0 6.0 0.00 0.00 0.00 69 1012.7
20220817230029 90 118 1.0 6.0 0.00 0.00 0.00 69 1012.8
20220817225629 90 331 1.0 6.0 0.00 0.00 0.00 68 1012.8
20220817225446 91 138 2.0 6.0 0.00 0.00 0.00 67 1012.8
20220817225005 91 351 1.0 5.0 0.00 0.00 0.00 67 1012.8
20220817224642 91 118 0.0 3.0 0.00 0.00 0.00 67 1012.7
20220817224538 91 148 1.0 5.0 0.00 0.00 0.00 67 1012.7
20220817223539 92 321 2.0 4.0 0.00 0.00 0.00 66 1012.8
20220817222936 93 276 2.0 4.0 0.00 0.00 0.00 65 1012.9
20220817222832 93 233 1.0 4.0 0.00 0.00 0.00 65 1013.0
20220817222734 93 155 1.0 4.0 0.00 0.00 0.00 65 1013.0
20220817222530 93 200 1.0 4.0 0.00 0.00 0.00 65 1013.0
20220817221629 92 72 1.0 5.0 0.00 0.00 0.00 67 1013.0
20220817221546 92 96 1.0 5.0 0.00 0.00 0.00 66 1013.0
20220817220926 92 154 0.0 4.0 0.00 0.00 0.00 67 1013.1
20220817220843 92 158 0.0 4.0 0.00 0.00 0.00 67 1013.1
20220817220701 92 99 1.0 5.0 0.00 0.00 0.00 68 1013.1
20220817215900 91 233 2.0 7.0 0.00 0.00 0.00 67 1013.1
20220817215340 91 164 1.0 6.0 0.00 0.00 0.00 68 1013.1
20220817215237 91 222 2.0 6.0 0.00 0.00 0.00 67 1013.1
20220817213631 91 0.0 2.0 0.00 0.00 0.00 64
20220817213531 91 266 1.0 2.0 0.00 0.00 0.00 64 1013.2
20220817211825 92 162 0.0 5.0 0.00 0.00 0.00 65 1013.3
20220817211225 92 230 2.0 5.0 0.00 0.00 0.00 63 1013.2
20220817211101 93 221 2.0 5.0 0.00 0.00 0.00 63 1013.2
20220817210918 93 283 1.0 6.0 0.00 0.00 0.00 62 1013.1
20220817210337 93 252 2.0 6.0 0.00 0.00 0.00 63 1013.2
20220817210234 93 275 2.0 6.0 0.00 0.00 0.00 62 1013.2
20220817210011 94 240 1.0 5.0 0.00 0.00 0.00 61 1013.2
20220817205649 94 146 1.0 5.0 0.00 0.00 0.00 59 1013.1
20220817204848 95 136 1.0 3.0 0.00 0.00 0.00 59 1013.1
20220817204128 94 294 1.0 7.0 0.00 0.00 0.00 59 1013.3
20220817202943 95 347 1.0 6.0 0.00 0.00 0.00 59 1013.4
20220817202802 95 192 2.0 7.0 0.00 0.00 0.00 60 1013.4
20220817202159 94 289 3.0 7.0 0.00 0.00 0.00 60 1013.4
20220817201418 94 298 3.0 6.0 0.00 0.00 0.00 59 1013.5
20220817200937 94 279 2.0 4.0 0.00 0.00 0.00 59 1013.6
20220817200834 95 232 2.0 4.0 0.00 0.00 0.00 60 1013.6
20220817200412 94 110 1.0 4.0 0.00 0.00 0.00 62 1013.7
20220817195951 94 245 2.0 4.0 0.00 0.00 0.00 62 1013.7
20220817195649 94 124 1.0 4.0 0.00 0.00 0.00 63 1013.7
20220817195449 94 113 1.0 5.0 0.00 0.00 0.00 61 1013.7
20220817195227 94 184 1.0 5.0 0.00 0.00 0.00 63 1013.7
20220817194126 93 134 1.0 5.0 0.00 0.00 0.00 65 1013.7
20220817193902 92 264 2.0 5.0 0.00 0.00 0.00 63 1013.6
20220817192215 90 204 2.0 6.0 0.00 0.00 0.00 67 1013.6
20220817191815 91 217 2.0 6.0 0.00 0.00 0.00 67 1013.6
20220817191432 91 205 1.0 4.0 0.00 0.00 0.00 68 1013.7
20220817191349 91 205 1.0 4.0 0.00 0.00 0.00 67 1013.7
20220817191110 91 257 2.0 7.0 0.00 0.00 0.00 67 1013.7
20220817190727 91 143 1.0 9.0 0.00 0.00 0.00 67 1013.8
20220817190006 93 304 3.0 9.0 0.00 0.00 0.00 63 1013.9
20220817185441 93 216 1.0 5.0 0.00 0.00 0.00 66 1013.9
20220817185359 93 218 1.0 5.0 0.00 0.00 0.00 65 1013.9
20220817185040 92 236 2.0 5.0 0.00 0.00 0.00 63 1013.9
20220817183432 91 257 2.0 4.0 0.00 0.00 0.00 69 1014.0
20220817183233 92 231 1.0 6.0 0.00 0.00 0.00 70 1014.0
20220817183131 92 265 1.0 6.0 0.00 0.00 0.00 68 1014.0
20220817181828 91 272 1.0 6.0 0.00 0.00 0.00 67 1014.2
20220817181706 91 179 2.0 6.0 0.00 0.00 0.00 67 1014.2
20220817180825 91 302 2.0 4.0 0.00 0.00 0.00 67 1014.2
20220817180206 92 227 2.0 4.0 0.00 0.00 0.00 65 1014.2
20220817175823 93 289 1.0 4.0 0.00 0.00 0.00 66 1014.2
20220817175801 93 289 1.0 4.0 0.00 0.00 0.00 66 1014.2
20220817175559 93 104 2.0 4.0 0.00 0.00 0.00 65 1014.1